AAL843 KPHX-KSBA

Flight info

Callsign AAL843
Flight time 1h 5m
Altitude 38000
Route KEENS3 HRRBR CURIV J212 PSP PORPS PITBL1
Aircraft A319/M-SDE3FGHIRWY/LB1

Departure

Time 2026-05-08 02:54
Airport Phoenix Sky Harbor International Airport (KPHX)

Arrival

Time 2026-05-08 03:59
Airport Santa Barbara Municipal Airport (KSBA)
Time Latitude Longitude Altitude Speed Heading
2026-05-08 02:27 33.43818 -112.00868 1134 ft 0 kts 219°
2026-05-08 02:43 33.43825 -112.00861 1142 ft 4 kts 219°
2026-05-08 02:43 33.43846 -112.00840 1136 ft 4 kts 219°
2026-05-08 02:44 33.43867 -112.00821 1136 ft 4 kts 210°
2026-05-08 02:44 33.43890 -112.00810 1134 ft 4 kts 171°
2026-05-08 02:44 33.43901 -112.00815 1133 ft 1 kts 90°
2026-05-08 02:44 33.43901 -112.00816 1133 ft 0 kts 90°
2026-05-08 02:46 33.43901 -112.00795 1132 ft 6 kts 90°
2026-05-08 02:46 33.43901 -112.00732 1131 ft 9 kts 90°
2026-05-08 02:47 33.43901 -112.00650 1131 ft 10 kts 90°
2026-05-08 02:47 33.43901 -112.00559 1131 ft 11 kts 90°
2026-05-08 02:47 33.43901 -112.00464 1131 ft 12 kts 90°
2026-05-08 02:47 33.43904 -112.00365 1131 ft 12 kts 88°
2026-05-08 02:48 33.43904 -112.00265 1131 ft 12 kts 90°
2026-05-08 02:48 33.43904 -112.00163 1131 ft 12 kts 90°
2026-05-08 02:48 33.43903 -112.00059 1131 ft 13 kts 90°
2026-05-08 02:48 33.43903 -111.99954 1131 ft 13 kts 90°
2026-05-08 02:49 33.43902 -111.99847 1131 ft 13 kts 90°
2026-05-08 02:49 33.43902 -111.99737 1131 ft 13 kts 90°
2026-05-08 02:49 33.43901 -111.99626 1132 ft 14 kts 90°
2026-05-08 02:49 33.43902 -111.99514 1132 ft 14 kts 89°
2026-05-08 02:50 33.43905 -111.99398 1132 ft 14 kts 88°
2026-05-08 02:50 33.43906 -111.99279 1132 ft 14 kts 90°
2026-05-08 02:50 33.43959 -111.99218 1134 ft 10 kts 44°
2026-05-08 02:50 33.43980 -111.99141 1133 ft 10 kts 68°
2026-05-08 02:51 33.43988 -111.99128 1135 ft 0 kts 51°
2026-05-08 02:52 33.43989 -111.99126 1134 ft 1 kts 49°
2026-05-08 02:52 33.44020 -111.99120 1136 ft 8 kts
2026-05-08 02:53 33.44082 -111.99165 1136 ft 15 kts 285°
2026-05-08 02:53 33.44083 -111.99438 1138 ft 61 kts 270°
2026-05-08 02:53 33.44084 -112.00171 1133 ft 116 kts 270°
2026-05-08 02:53 33.44085 -112.01344 1147 ft 163 kts 270°
2026-05-08 02:54 33.44065 -112.02767 1576 ft 175 kts 269°
2026-05-08 02:54 33.43874 -112.04182 2210 ft 174 kts 255°
2026-05-08 02:54 33.43467 -112.05530 2938 ft 173 kts 251°
2026-05-08 02:54 33.43007 -112.06926 3251 ft 190 kts 249°
2026-05-08 02:55 33.42503 -112.08465 3449 ft 211 kts 250°
2026-05-08 02:55 33.41340 -112.12132 4192 ft 256 kts 251°
2026-05-08 02:55 33.40712 -112.14168 4972 ft 264 kts 251°
2026-05-08 02:56 33.40075 -112.16269 5817 ft 270 kts 251°
2026-05-08 02:56 33.39473 -112.18397 6620 ft 276 kts 257°
2026-05-08 02:56 33.39258 -112.20687 7449 ft 279 kts 274°
2026-05-08 02:56 33.39523 -112.22998 8296 ft 282 kts 282°
2026-05-08 02:57 33.39881 -112.25326 9170 ft 286 kts 283°
2026-05-08 02:57 33.40243 -112.27693 10000 ft 291 kts 283°
2026-05-08 02:57 33.40611 -112.30135 10458 ft 310 kts 283°
2026-05-08 02:57 33.41004 -112.32750 10719 ft 333 kts 282°
2026-05-08 02:58 33.41421 -112.35543 11228 ft 345 kts 282°
2026-05-08 02:58 33.41842 -112.38399 11952 ft 350 kts 283°
2026-05-08 02:58 33.42261 -112.41260 12656 ft 355 kts 283°
2026-05-08 02:58 33.42692 -112.44203 13348 ft 361 kts 283°
2026-05-08 02:59 33.43132 -112.47207 13981 ft 366 kts 283°
2026-05-08 02:59 33.43571 -112.50200 14588 ft 371 kts 283°
2026-05-08 02:59 33.44016 -112.53240 15220 ft 375 kts 283°
2026-05-08 02:59 33.44471 -112.56348 15858 ft 379 kts 283°
2026-05-08 03:00 33.44916 -112.59486 16460 ft 384 kts 280°
2026-05-08 03:00 33.45061 -112.62711 17080 ft 391 kts 273°
2026-05-08 03:00 33.45101 -112.65943 17695 ft 395 kts 273°
2026-05-08 03:00 33.45143 -112.69262 18306 ft 399 kts 273°
2026-05-08 03:01 33.45185 -112.72615 18867 ft 402 kts 273°
2026-05-08 03:01 33.45226 -112.75943 19444 ft 405 kts 273°
2026-05-08 03:01 33.45304 -112.79319 20030 ft 406 kts 277°
2026-05-08 03:01 33.45771 -112.82655 20645 ft 405 kts 286°
2026-05-08 03:02 33.46402 -112.85958 21233 ft 408 kts 286°
2026-05-08 03:02 33.47033 -112.89296 21822 ft 410 kts 286°
2026-05-08 03:02 33.47661 -112.92647 22372 ft 413 kts 286°
2026-05-08 03:02 33.48286 -112.96013 22914 ft 415 kts 286°
2026-05-08 03:03 33.48907 -112.99360 23438 ft 418 kts 286°
2026-05-08 03:03 33.49540 -113.02770 23868 ft 420 kts 286°
2026-05-08 03:03 33.50180 -113.06222 24286 ft 423 kts 286°
2026-05-08 03:03 33.50816 -113.09644 24694 ft 426 kts 286°
2026-05-08 03:04 33.51465 -113.13132 25106 ft 428 kts 286°
2026-05-08 03:04 33.52106 -113.16596 25519 ft 430 kts 286°
2026-05-08 03:04 33.52755 -113.20119 25916 ft 433 kts 286°
2026-05-08 03:04 33.53411 -113.23681 26317 ft 436 kts 286°
2026-05-08 03:05 33.54067 -113.27244 26708 ft 439 kts 287°
2026-05-08 03:05 33.54719 -113.30789 27101 ft 442 kts 287°
2026-05-08 03:05 33.55383 -113.34404 27485 ft 445 kts 287°
2026-05-08 03:05 33.56053 -113.38070 27876 ft 448 kts 287°
2026-05-08 03:06 33.56720 -113.41731 28255 ft 451 kts 287°
2026-05-08 03:06 33.57391 -113.45423 28778 ft 454 kts 287°
2026-05-08 03:06 33.58059 -113.49099 29160 ft 457 kts 287°
2026-05-08 03:06 33.58736 -113.52833 29524 ft 459 kts 287°
2026-05-08 03:07 33.59432 -113.56604 29879 ft 461 kts 287°
2026-05-08 03:07 33.60129 -113.60330 30205 ft 464 kts 288°
2026-05-08 03:07 33.60845 -113.64123 30507 ft 466 kts 288°
2026-05-08 03:07 33.61563 -113.67942 30811 ft 468 kts 287°
2026-05-08 03:08 33.62267 -113.71711 31086 ft 469 kts 287°
2026-05-08 03:08 33.62981 -113.75545 31372 ft 470 kts 287°
2026-05-08 03:08 33.63687 -113.79373 31837 ft 467 kts 287°
2026-05-08 03:08 33.64385 -113.83182 32288 ft 464 kts 287°
2026-05-08 03:09 33.65072 -113.86927 32711 ft 463 kts 287°
2026-05-08 03:09 33.65767 -113.90703 33129 ft 461 kts 287°
2026-05-08 03:09 33.66460 -113.94471 33540 ft 460 kts 287°
2026-05-08 03:09 33.67150 -113.98223 33962 ft 459 kts 287°
2026-05-08 03:10 33.67829 -114.01918 34354 ft 457 kts 287°
2026-05-08 03:10 33.68510 -114.05647 34769 ft 455 kts 287°
2026-05-08 03:10 33.69192 -114.09382 35118 ft 455 kts 287°
2026-05-08 03:10 33.69863 -114.13068 35424 ft 455 kts 287°
2026-05-08 03:11 33.70542 -114.16793 35764 ft 455 kts 287°
2026-05-08 03:11 33.71217 -114.20516 36128 ft 453 kts 286°
2026-05-08 03:11 33.71884 -114.24219 36490 ft 452 kts 286°
2026-05-08 03:11 33.72540 -114.27867 36836 ft 451 kts 286°
2026-05-08 03:12 33.73202 -114.31555 37192 ft 450 kts 286°
2026-05-08 03:12 33.73861 -114.35227 37564 ft 448 kts 286°
2026-05-08 03:12 33.74520 -114.38905 37775 ft 449 kts 286°
2026-05-08 03:13 33.75824 -114.46167 37837 ft 443 kts 285°
2026-05-08 03:13 33.77111 -114.53398 37836 ft 443 kts 284°
2026-05-08 03:14 33.77538 -114.58295 37832 ft 446 kts 277°
2026-05-08 03:14 33.77911 -114.64779 37831 ft 446 kts 277°
2026-05-08 03:15 33.78348 -114.72234 37837 ft 446 kts 277°
2026-05-08 03:15 33.78780 -114.79694 37848 ft 446 kts 277°
2026-05-08 03:16 33.79198 -114.87100 37845 ft 446 kts 277°
2026-05-08 03:16 33.79612 -114.94546 37844 ft 445 kts 277°
2026-05-08 03:17 33.80023 -115.01947 37823 ft 445 kts 277°
2026-05-08 03:17 33.80426 -115.09370 37854 ft 444 kts 277°
2026-05-08 03:18 33.80833 -115.16770 37862 ft 442 kts 277°
2026-05-08 03:18 33.81229 -115.24163 37859 ft 442 kts 277°
2026-05-08 03:19 33.81618 -115.31536 37860 ft 442 kts 277°
2026-05-08 03:19 33.82011 -115.38925 37848 ft 442 kts 276°
2026-05-08 03:20 33.82394 -115.46257 37863 ft 442 kts 276°
2026-05-08 03:20 33.82777 -115.53653 37865 ft 442 kts 276°
2026-05-08 03:21 33.83152 -115.61049 37865 ft 442 kts 276°
2026-05-08 03:21 33.83515 -115.68398 37854 ft 442 kts 277°
2026-05-08 03:22 33.83881 -115.75816 37857 ft 443 kts 277°
2026-05-08 03:22 33.84244 -115.83193 37862 ft 443 kts 277°
2026-05-08 03:23 33.84606 -115.90634 37860 ft 444 kts 277°
2026-05-08 03:23 33.84959 -115.98015 37854 ft 444 kts 276°
2026-05-08 03:24 33.85310 -116.05454 37866 ft 444 kts 276°
2026-05-08 03:24 33.85651 -116.12851 37876 ft 444 kts 276°
2026-05-08 03:25 33.85991 -116.20246 37871 ft 444 kts 276°
2026-05-08 03:25 33.86327 -116.27686 37860 ft 444 kts 276°
2026-05-08 03:26 33.86600 -116.33874 37865 ft 444 kts 276°
2026-05-08 03:26 33.86945 -116.41279 37869 ft 444 kts 279°
2026-05-08 03:27 33.88339 -116.48462 37873 ft 440 kts 289°
2026-05-08 03:27 33.90064 -116.55495 37882 ft 440 kts 289°
2026-05-08 03:28 33.91791 -116.62604 37880 ft 440 kts 289°
2026-05-08 03:28 33.93505 -116.69661 37895 ft 440 kts 289°
2026-05-08 03:29 33.95215 -116.76747 37921 ft 440 kts 289°
2026-05-08 03:29 33.96913 -116.83798 37947 ft 440 kts 289°
2026-05-08 03:30 33.99473 -116.94437 37983 ft 439 kts 288°
2026-05-08 03:31 34.02864 -117.08588 38002 ft 439 kts 288°
2026-05-08 03:32 34.05379 -117.19139 38031 ft 439 kts 288°
2026-05-08 03:32 34.07066 -117.26230 38032 ft 439 kts 288°
2026-05-08 03:33 34.08741 -117.33327 38030 ft 439 kts 288°
2026-05-08 03:33 34.10403 -117.40398 38027 ft 439 kts 288°
2026-05-08 03:34 34.12072 -117.47513 38029 ft 439 kts 287°
2026-05-08 03:34 34.13729 -117.54574 38040 ft 439 kts 287°
2026-05-08 03:35 34.15389 -117.61671 38059 ft 439 kts 287°
2026-05-08 03:35 34.17046 -117.68780 38058 ft 438 kts 287°
2026-05-08 03:36 34.18672 -117.75780 38063 ft 438 kts 287°
2026-05-08 03:36 34.19499 -117.79334 37784 ft 440 kts 287°
2026-05-08 03:36 34.20336 -117.82941 36811 ft 450 kts 287°
2026-05-08 03:36 34.21188 -117.86623 35888 ft 457 kts 287°
2026-05-08 03:37 34.22037 -117.90305 35090 ft 461 kts 287°
2026-05-08 03:37 34.22906 -117.94077 34239 ft 465 kts 287°
2026-05-08 03:37 34.23780 -117.97868 33232 ft 471 kts 287°
2026-05-08 03:37 34.24655 -118.01662 32228 ft 475 kts 287°
2026-05-08 03:38 34.25546 -118.05531 31396 ft 475 kts 287°
2026-05-08 03:38 34.26426 -118.09356 30891 ft 467 kts 287°
2026-05-08 03:38 34.27281 -118.13095 30288 ft 464 kts 287°
2026-05-08 03:38 34.28147 -118.16851 29728 ft 458 kts 288°
2026-05-08 03:39 34.29022 -118.20477 29468 ft 449 kts 289°
2026-05-08 03:39 34.29933 -118.24121 29118 ft 444 kts 289°
2026-05-08 03:39 34.30828 -118.27637 28779 ft 441 kts 289°
2026-05-08 03:39 34.31733 -118.31186 28448 ft 439 kts 289°
2026-05-08 03:40 34.32624 -118.34717 28117 ft 437 kts 289°
2026-05-08 03:40 34.33503 -118.38232 27776 ft 435 kts 288°
2026-05-08 03:40 34.34366 -118.41710 27466 ft 433 kts 288°
2026-05-08 03:40 34.35229 -118.45204 27136 ft 431 kts 288°
2026-05-08 03:41 34.36087 -118.48695 26807 ft 429 kts 288°
2026-05-08 03:41 34.36922 -118.52108 26492 ft 427 kts 288°
2026-05-08 03:41 34.37767 -118.55565 26164 ft 425 kts 288°
2026-05-08 03:41 34.38608 -118.59008 25836 ft 423 kts 288°
2026-05-08 03:42 34.39436 -118.62380 25514 ft 421 kts 288°
2026-05-08 03:42 34.40273 -118.65779 25191 ft 419 kts 288°
2026-05-08 03:42 34.41101 -118.69152 24889 ft 418 kts 288°
2026-05-08 03:42 34.41927 -118.72527 24581 ft 416 kts 288°
2026-05-08 03:43 34.42642 -118.75913 24262 ft 415 kts 281°
2026-05-08 03:43 34.42869 -118.79354 23949 ft 415 kts 270°
2026-05-08 03:43 34.42596 -118.82847 23234 ft 419 kts 259°
2026-05-08 03:43 34.41990 -118.86299 22620 ft 416 kts 259°
2026-05-08 03:44 34.41394 -118.89722 22017 ft 413 kts 259°
2026-05-08 03:44 34.40811 -118.93119 21434 ft 411 kts 259°
2026-05-08 03:44 34.40234 -118.96505 20840 ft 409 kts 259°
2026-05-08 03:44 34.39665 -118.99837 20253 ft 407 kts 259°
2026-05-08 03:45 34.39089 -119.03204 19655 ft 405 kts 259°
2026-05-08 03:45 34.38523 -119.06504 19066 ft 403 kts 259°
2026-05-08 03:45 34.37950 -119.09832 18480 ft 400 kts 259°
2026-05-08 03:45 34.37389 -119.13137 17850 ft 398 kts 259°
2026-05-08 03:46 34.36847 -119.16367 17281 ft 392 kts 259°
2026-05-08 03:46 34.36306 -119.19590 16717 ft 387 kts 259°
2026-05-08 03:46 34.35772 -119.22771 16159 ft 382 kts 259°
2026-05-08 03:46 34.35244 -119.25910 15604 ft 377 kts 258°
2026-05-08 03:47 34.34723 -119.29008 15063 ft 372 kts 258°
2026-05-08 03:47 34.34210 -119.32032 14530 ft 369 kts 258°
2026-05-08 03:47 34.33694 -119.35058 13999 ft 365 kts 258°
2026-05-08 03:47 34.33183 -119.38052 13433 ft 361 kts 258°
2026-05-08 03:48 34.32679 -119.41021 12906 ft 356 kts 258°
2026-05-08 03:48 34.32189 -119.43907 12390 ft 351 kts 258°
2026-05-08 03:48 34.31697 -119.46799 11897 ft 347 kts 259°
2026-05-08 03:48 34.31239 -119.49617 11380 ft 342 kts 262°
2026-05-08 03:49 34.31159 -119.52471 10902 ft 337 kts 275°
2026-05-08 03:49 34.31524 -119.55258 10459 ft 332 kts 282°
2026-05-08 03:49 34.31950 -119.57955 10333 ft 317 kts 281°
2026-05-08 03:49 34.32350 -119.60514 10213 ft 304 kts 281°
2026-05-08 03:50 34.32732 -119.62968 10018 ft 296 kts 281°
2026-05-08 03:50 34.33107 -119.65399 9876 ft 291 kts 281°
2026-05-08 03:50 34.33483 -119.67832 9425 ft 294 kts 281°
2026-05-08 03:50 34.33847 -119.70211 9123 ft 290 kts 281°
2026-05-08 03:51 34.34216 -119.72603 8743 ft 288 kts 282°
2026-05-08 03:51 34.34583 -119.74989 8369 ft 286 kts 282°
2026-05-08 03:51 34.34952 -119.77369 7999 ft 285 kts 282°
2026-05-08 03:51 34.35315 -119.79698 7642 ft 283 kts 282°
2026-05-08 03:52 34.35681 -119.82042 7272 ft 281 kts 282°
2026-05-08 03:52 34.35917 -119.84395 6948 ft 280 kts 271°
2026-05-08 03:52 34.35840 -119.86723 6603 ft 279 kts 269°
2026-05-08 03:52 34.35754 -119.89060 6266 ft 276 kts 270°
2026-05-08 03:53 34.35667 -119.91387 5875 ft 276 kts 269°
2026-05-08 03:53 34.35588 -119.93723 5292 ft 282 kts 270°
2026-05-08 03:53 34.35518 -119.96126 4559 ft 294 kts 270°
2026-05-08 03:53 34.35429 -119.98659 3788 ft 305 kts 269°
2026-05-08 03:54 34.35311 -120.01258 3235 ft 308 kts 269°
2026-05-08 03:54 34.35193 -120.03793 3065 ft 294 kts 270°
2026-05-08 03:54 34.35519 -120.06140 2877 ft 277 kts 299°
2026-05-08 03:54 34.36763 -120.07728 2798 ft 257 kts 334°
2026-05-08 03:55 34.38446 -120.08073 2739 ft 242 kts 11°
2026-05-08 03:55 34.39893 -120.07190 2685 ft 228 kts 36°
2026-05-08 03:55 34.41135 -120.06071 2633 ft 215 kts 36°
2026-05-08 03:55 34.42062 -120.04747 2564 ft 207 kts 62°
2026-05-08 03:56 34.42373 -120.03049 2623 ft 211 kts 84°
2026-05-08 03:56 34.42411 -120.01257 2479 ft 213 kts 86°
2026-05-08 03:56 34.42447 -119.99476 2227 ft 209 kts 86°
2026-05-08 03:56 34.42484 -119.97760 1976 ft 202 kts 85°
2026-05-08 03:57 34.42520 -119.96081 1704 ft 195 kts 84°
2026-05-08 03:57 34.42556 -119.94467 1456 ft 187 kts 87°
2026-05-08 03:57 34.42589 -119.92970 1248 ft 170 kts 88°
2026-05-08 03:57 34.42618 -119.91638 1029 ft 146 kts 89°
2026-05-08 03:58 34.42644 -119.90477 846 ft 133 kts 89°
2026-05-08 03:58 34.42668 -119.89372 672 ft 128 kts 90°
2026-05-08 03:58 34.42690 -119.88301 513 ft 129 kts 90°
2026-05-08 03:58 34.42714 -119.87221 321 ft 125 kts 92°
2026-05-08 03:59 34.42728 -119.86180 182 ft 126 kts 90°
2026-05-08 03:59 34.42761 -119.85138 26 ft 114 kts 93°
2026-05-08 03:59 34.42773 -119.84319 21 ft 74 kts 88°
2026-05-08 03:59 34.42778 -119.84135 19 ft 0 kts 88°
2026-05-08 04:00 34.42771 -119.84080 21 ft 17 kts 118°
2026-05-08 04:00 34.42678 -119.84019 23 ft 15 kts 120°
2026-05-08 04:00 34.42671 -119.83885 24 ft 18 kts 86°
2026-05-08 04:00 34.42594 -119.83812 23 ft 18 kts 173°
2026-05-08 04:01 34.42541 -119.83768 30 ft 9 kts 91°
2026-05-08 04:01 34.42548 -119.83748 27 ft 4 kts 59°
2026-05-08 04:01 34.42548 -119.83731 25 ft 1 kts 114°
2026-05-08 04:01 34.42539 -119.83725 24 ft 3 kts 149°
2026-05-08 04:02 34.42530 -119.83717 25 ft 0 kts 144°